24h Messdaten per 27.11.2021 um 23:36:01

Datum Zeit Luftdruck Temp Balkon Feuchte Balkon Temp Strasse Feuchte Strasse Wind km/h Wind Boe Wind aus (Grad) Regen l/15min Sonne h/Monat
27.11.21 23:36:01 -1.4 56 0.0
27.11.21 23:31:01 -1.7 55 0.0
27.11.21 23:26:01 -1.6 55 0.0
27.11.21 23:21:01 -1.5 55 0.0
27.11.21 23:16:01 -1.1 55 0.0
27.11.21 23:11:01 -1.0 55 0.0
27.11.21 23:06:01 -1.0 55 0.0
27.11.21 23:01:01 -1.0 56 0.0
27.11.21 22:56:01 0.0
27.11.21 22:51:00 -1.2 55 0.0
27.11.21 22:46:00 -0.7 56 0.0
27.11.21 22:41:00 -0.6 57 0.0
27.11.21 22:36:00 -1.0 57 0.0
27.11.21 22:31:00 -1.2 56 0.0
27.11.21 22:26:00 -1.4 56 0.0
27.11.21 22:21:01 -1.4 57 0.0
27.11.21 22:16:01 -1.4 57 0.0
27.11.21 22:11:01 -1.4 57 0.0
27.11.21 22:06:00 -1.4 57 0.0
27.11.21 22:01:00 -1.4 58 0.0
27.11.21 21:56:00 -1.4 58 0.0
27.11.21 21:51:02 -1.5 59 0.0
27.11.21 21:46:01 -1.7 58 0.0
27.11.21 21:41:01 -1.8 59 0.0
27.11.21 21:36:01 -1.8 59 0.0
27.11.21 21:31:01 -2.3 59 0.0
27.11.21 21:26:01 -2.1 59 0.0
27.11.21 21:21:01 -2.2 60 0.0
27.11.21 21:16:01 -2.2 60 0.0
27.11.21 21:11:01 -2.3 60 0.0
27.11.21 21:06:01 -2.6 59 0.0
27.11.21 21:01:01 -2.6 59 0.0
27.11.21 20:56:01 -2.6 59 0.0
27.11.21 20:51:01 -2.7 60 0.0
27.11.21 20:46:01 -3.1 59 0.0
27.11.21 20:41:01 -3.7 58 0.0
27.11.21 20:36:01 -3.9 58 0.0
27.11.21 20:31:01 -3.9 57 0.0
27.11.21 20:26:01 0.0
27.11.21 20:21:01 -3.3 56 0.0
27.11.21 20:16:01 -2.5 58 0.0
27.11.21 20:11:01 -2.3 59 0.0
27.11.21 20:06:01 -2.5 58 0.0
27.11.21 20:01:01 -2.7 58 0.0
27.11.21 19:56:01 -3.0 58 0.0
27.11.21 19:51:01 -2.9 58 0.0
27.11.21 19:46:01 -3.3 57 0.0
27.11.21 19:41:01 -3.3 57 0.0
27.11.21 19:36:01 0.0
27.11.21 19:31:01 -3.6 55 0.0
27.11.21 19:26:01 -3.5 55 0.0
27.11.21 19:21:02 -3.6 54 0.0
27.11.21 19:16:01 -4.0 53 0.0
27.11.21 19:11:01 -3.9 54 0.0
27.11.21 19:06:01 0.0
27.11.21 19:01:01 -3.7 54 0.0
27.11.21 18:56:01 -3.3 53 0.0
27.11.21 18:51:01 -3.1 53 0.0
27.11.21 18:46:01 -3.0 53 0.0
27.11.21 18:41:01 -2.7 55 0.0
27.11.21 18:36:02 -2.8 52 0.0
27.11.21 18:31:01 -2.1 54 0.0
27.11.21 18:26:01 -2.1 53 0.0
27.11.21 18:21:01 -2.2 52 0.0
27.11.21 18:16:01 -2.4 52 0.0
27.11.21 18:11:01 -2.5 51 0.0
27.11.21 18:06:01 -2.9 50 0.0
27.11.21 18:01:01 -3.2 48 0.0
27.11.21 17:56:01 -3.2 47 0.0
27.11.21 17:51:01 -3.0 47 0.0
27.11.21 17:46:01 -2.8 46 0.0
27.11.21 17:41:01 -2.8 46 0.0
27.11.21 17:36:01 -2.9 46 0.0
27.11.21 17:31:01 -2.7 45 0.0
27.11.21 17:26:01 -2.8 43 0.0
27.11.21 17:21:01 -2.8 43 0.0
27.11.21 17:16:01 -2.4 42 0.0
27.11.21 17:11:01 -2.3 41 0.0
27.11.21 17:06:01 -2.4 41 0.0
27.11.21 17:01:01 -2.1 40 0.0
27.11.21 16:56:01 -1.9 39 0.0
27.11.21 16:51:02 -1.5 36 0.0
27.11.21 16:46:01 -1.3 35 0.0
27.11.21 16:41:01 -0.9 32 0.0
27.11.21 16:36:01 -0.3 34 0.0
27.11.21 16:31:01 0.1 34 0.0
27.11.21 16:26:01 0.2 29 0.0
27.11.21 16:21:01 0.7 28 0.0
27.11.21 16:16:01 1.0 26 0.0
27.11.21 16:11:01 1.4 22 0.0
27.11.21 16:06:01 0.0
27.11.21 16:01:01 1.9 21 0.0
27.11.21 15:56:01 2.3 20 0.0
27.11.21 15:51:01 0.0
27.11.21 15:46:01 0.0
27.11.21 15:41:01 0.0
27.11.21 15:36:01 2.1 20 0.0
27.11.21 15:31:01 1.7 20 0.0
27.11.21 15:26:01 1.9 20 0.0
27.11.21 15:21:01 2.0 20 0.0
27.11.21 15:16:01 2.3 20 0.0
27.11.21 15:11:01 2.6 20 0.0
27.11.21 15:06:01 2.6 20 0.0
27.11.21 15:01:01 3.0 20 0.0
27.11.21 14:56:01 3.1 20 0.0
27.11.21 14:51:01 3.2 20 0.0
27.11.21 14:46:01 3.4 20 0.0
27.11.21 14:41:01 3.3 20 0.0
27.11.21 14:36:02 3.4 20 0.0
27.11.21 14:31:01 3.4 20 0.0
27.11.21 14:26:01 3.8 20 0.0
27.11.21 14:21:01 3.9 20 0.0
27.11.21 14:16:01 3.8 20 0.0
27.11.21 14:11:01 3.7 20 0.0
27.11.21 14:06:01 3.8 20 0.0
27.11.21 14:01:01 3.9 20 0.0
27.11.21 13:56:01 4.2 20 0.0
27.11.21 13:51:01 4.2 20 0.0
27.11.21 13:46:01 4.5 20 0.0
27.11.21 13:41:01 4.6 20 0.0
27.11.21 13:36:01 4.8 20 0.0
27.11.21 13:31:01 4.8 20 0.0
27.11.21 13:26:01 5.0 20 0.0
27.11.21 13:21:01 6.5 20 0.0
27.11.21 13:16:01 6.1 20 0.0
27.11.21 13:11:01 5.2 20 0.0
27.11.21 13:06:01 0.0
27.11.21 13:01:01 0.0
27.11.21 12:56:01 0.0
27.11.21 12:51:01 6.2 20 0.0
27.11.21 12:46:01 6.6 20 0.0
27.11.21 12:41:01 5.3 20 0.0
27.11.21 12:36:02 5.6 20 0.0
27.11.21 12:31:02 3.6 20 0.0
27.11.21 12:26:02 3.5 20 0.0
27.11.21 12:21:01 3.5 20 0.0
27.11.21 12:16:01 0.0
27.11.21 12:11:01 3.4 22 0.0
27.11.21 12:06:02 3.2 21 0.0
27.11.21 12:01:02 3.3 22 0.0
27.11.21 11:56:02 3.1 24 0.0
27.11.21 11:51:02 2.8 25 0.0
27.11.21 11:46:02 2.8 27 0.0
27.11.21 11:41:02 0.0
27.11.21 11:36:01 2.8 26 0.0
27.11.21 11:31:01 2.3 33 0.0
27.11.21 11:26:01 2.2 32 0.0
27.11.21 11:21:02 2.1 32 0.0
27.11.21 11:16:02 2.3 31 0.0
27.11.21 11:11:02 2.1 32 0.0
27.11.21 11:06:02 2.1 34 0.0
27.11.21 11:01:01 1.9 35 0.0
27.11.21 10:56:01 1.9 36 0.0
27.11.21 10:51:02 1.6 38 0.0
27.11.21 10:46:02 1.5 40 0.0
27.11.21 10:41:02 1.4 41 0.0
27.11.21 10:36:02 1.2 42 0.0
27.11.21 10:31:02 1.0 43 0.0
27.11.21 10:26:02 0.9 45 0.0
27.11.21 10:21:01 0.8 47 0.0
27.11.21 10:16:01 0.6 48 0.0
27.11.21 10:11:01 0.5 50 0.0
27.11.21 10:06:02 0.0
27.11.21 10:01:02 0.1 54 0.0
27.11.21 09:56:01 0.1 54 0.0
27.11.21 09:51:01 -0.1 55 0.0
27.11.21 09:46:01 -0.1 56 0.0
27.11.21 09:41:01 -0.2 57 0.0
27.11.21 09:36:01 -0.5 56 0.0
27.11.21 09:31:01 -0.6 57 0.0
27.11.21 09:26:01 -0.7 56 0.0
27.11.21 09:21:02 -0.9 56 0.0
27.11.21 09:16:01 -2.0 53 0.0
27.11.21 09:11:01 -2.0 53 0.0
27.11.21 09:06:02 -2.0 52 0.0
27.11.21 09:01:02 0.0
27.11.21 08:56:01 -1.5 51 0.0
27.11.21 08:51:02 -1.8 51 0.0
27.11.21 08:46:02 -1.3 50 0.0
27.11.21 08:41:02 0.0
27.11.21 08:36:01 -1.2 50 0.0
27.11.21 08:31:01 -1.1 50 0.0
27.11.21 08:26:01 -0.7 49 0.0
27.11.21 08:21:01 -0.2 50 0.0
27.11.21 08:16:01 0.1 50 0.0
27.11.21 08:11:01 0.3 50 0.0
27.11.21 08:06:02 0.4 50 0.0
27.11.21 08:01:02 0.4 50 0.0
27.11.21 07:56:02 0.5 50 0.0
27.11.21 07:51:02 0.7 51 0.0
27.11.21 07:46:02 0.6 51 0.0
27.11.21 07:41:02 0.9 52 0.0
27.11.21 07:36:02 1.0 53 0.0
27.11.21 07:31:02 1.0 53 0.0
27.11.21 07:26:02 1.2 54 0.0
27.11.21 07:21:02 1.1 55 0.0
27.11.21 07:16:02 1.2 55 0.0
27.11.21 07:11:02 1.1 56 0.0
27.11.21 07:06:01 0.0
27.11.21 07:01:01 1.0 56 0.0
27.11.21 06:56:01 1.0 56 0.0
27.11.21 06:51:02 1.1 57 0.0
27.11.21 06:46:01 0.0
27.11.21 06:41:01 1.0 57 0.0
27.11.21 06:36:03 1.0 57 0.0
27.11.21 06:31:03 0.9 57 0.0
27.11.21 06:26:03 0.9 57 0.0
27.11.21 06:21:02 1.0 58 0.0
27.11.21 06:16:02 1.0 59 0.0
27.11.21 06:11:02 0.8 59 0.0
27.11.21 06:06:01 0.8 59 0.0
27.11.21 06:01:01 0.5 60 0.0
27.11.21 05:56:01 0.4 59 0.0
27.11.21 05:51:03 0.3 59 0.0
27.11.21 05:46:02 0.3 59 0.0
27.11.21 05:41:02 0.0 58 0.0
27.11.21 05:36:01 0.1 58 0.0
27.11.21 05:31:01 0.2 58 0.0
27.11.21 05:26:01 0.3 57 0.0
27.11.21 05:21:01 0.6 58 0.0
27.11.21 05:16:01 0.6 58 0.0
27.11.21 05:11:01 0.7 58 0.0
27.11.21 05:06:02 0.8 58 0.0
27.11.21 05:01:02 0.9 58 0.0
27.11.21 04:56:02 0.8 57 0.0
27.11.21 04:51:02 1.0 58 0.0
27.11.21 04:46:02 1.1 58 0.0
27.11.21 04:41:02 1.0 58 0.0
27.11.21 04:36:03 0.9 58 0.0
27.11.21 04:31:03 0.7 57 0.0
27.11.21 04:26:02 1.0 57 0.0
27.11.21 04:21:02 1.2 57 0.0
27.11.21 04:16:02 1.2 56 0.0
27.11.21 04:11:02 1.4 56 0.0
27.11.21 04:06:02 0.0
27.11.21 04:01:02 1.4 56 0.0
27.11.21 03:56:02 1.5 55 0.0
27.11.21 03:50:02 1.5 55 0.0
27.11.21 03:45:02 1.4 55 0.0
27.11.21 03:40:02 1.5 54 0.0
27.11.21 03:35:02 1.5 54 0.0
27.11.21 03:30:02 1.6 53 0.0
27.11.21 03:25:02 1.7 53 0.0
27.11.21 03:20:02 1.7 53 0.0
27.11.21 03:15:02 1.7 53 0.0
27.11.21 03:10:01 1.7 52 0.0
27.11.21 03:05:01 1.8 52 0.0
27.11.21 03:00:01 1.9 52 0.0
27.11.21 02:55:01 1.9 52 0.0
27.11.21 02:50:01 1.9 51 0.0
27.11.21 02:45:01 2.0 52 0.0
27.11.21 02:40:01 2.0 51 0.0
27.11.21 02:35:02 1.9 51 0.0
27.11.21 02:30:02 1.9 50 0.0
27.11.21 02:25:02 1.9 50 0.0
27.11.21 02:20:02 2.0 50 0.0
27.11.21 02:15:02 1.9 50 0.0
27.11.21 02:10:02 2.0 49 0.0
27.11.21 02:05:01 0.0
27.11.21 02:00:01 1.9 48 0.0
27.11.21 01:55:01 1.9 47 0.0
27.11.21 01:50:02 2.0 47 0.0
27.11.21 01:45:02 2.1 46 0.0
27.11.21 01:40:02 2.1 45 0.0
27.11.21 01:39:02 2.1 44 0.0
27.11.21 01:30:02 2.2 44 0.0
27.11.21 01:25:02 2.3 43 0.0
27.11.21 01:20:01 2.4 43 0.0
27.11.21 01:15:01 2.5 42 0.0
27.11.21 01:10:01 2.8 39 0.0
27.11.21 01:05:02 3.0 38 0.0
27.11.21 01:00:01 3.0 39 0.0
27.11.21 00:55:01 2.8 39 0.0
27.11.21 00:50:02 2.8 40 0.0
27.11.21 00:45:02 2.8 40 0.0
27.11.21 00:40:02 2.8 40 0.0
27.11.21 00:35:01 2.6 40 0.0
27.11.21 00:30:01 2.6 40 0.0
27.11.21 00:25:01 2.5 40 0.0
27.11.21 00:20:02 2.7 39 0.0
27.11.21 00:15:02 2.8 39 0.0
27.11.21 00:10:02 2.6 38 0.0
27.11.21 00:05:02 2.9 39 0.0
27.11.21 00:00:02 2.9 38 0.0
26.11.21 23:55:01 3.0 39 0.0
26.11.21 23:50:02 2.8 40 0.0
26.11.21 23:45:02 2.6 39 0.0
26.11.21 23:40:02 2.7 40 0.0
Index
© 2002-2021 Thomas Dreßler
Alle Rechte vorbehalten
letzte Scriptänderung 21.03.2021